EW3665 Weather Reports


time (UTC)temp
C
wind
direction
speed
KPH
gust
KPH
rain 1hr
cm
rain 24hr
cm
rain mn
cm
humidity
%
barometer
mb
20260507143132 -17 0.0 0.0 0.00 0.00 0.00 1012.4
20260507141507 -17 0.0 0.0 0.00 0.00 0.00 1012.4
20260507140002 -17 0.0 0.0 0.00 0.00 0.00 1012.6
20260507134604 28 46 4.8 16.1 0.00 0.00 0.00 74 1012.6
20260507133105 28 71 6.4 16.1 0.00 0.00 0.00 75 1012.5
20260507131600 27 146 6.4 14.5 0.00 0.00 0.00 78 1012.4
20260507130056 27 85 4.8 14.5 0.00 0.00 0.00 78 1012.5
20260507124556 27 19 6.4 16.1 0.00 0.00 0.00 77 1012.6
20260507123056 27 36 4.8 11.3 0.00 0.00 0.00 77 1012.5
20260507121544 27 19 6.4 17.7 0.00 0.00 0.00 77 1012.4
20260507120045 27 79 4.8 11.3 0.00 0.00 0.00 79 1012.2
20260507114542 26 53 3.2 9.7 0.00 0.00 0.00 80 1012.1
20260507113045 26 75 3.2 12.9 0.00 0.00 0.00 84 1012.0
20260507111536 25 63 0.0 6.4 0.00 0.00 0.00 86 1011.6
20260507110037 25 35 1.6 8.0 0.00 0.00 0.00 87 1011.5
20260507104533 24 67 0.0 4.8 0.00 0.00 0.00 88 1011.3
20260507103033 24 65 1.6 8.0 0.00 0.00 0.00 88 1011.0
20260507101520 24 110 1.6 8.0 0.00 0.00 0.00 89 1011.1
20260507100025 24 56 1.6 6.4 0.00 0.00 0.00 88 1011.0
20260507094518 24 88 0.0 6.4 0.00 0.00 0.00 88 1011.1
20260507093017 24 61 1.6 8.0 0.00 0.00 0.00 87 1011.1
20260507091521 24 81 0.0 3.2 0.00 0.00 0.00 87 1011.1
20260507090015 24 101 1.6 9.7 0.00 0.00 0.00 86 1010.9
20260507084515 25 96 1.6 11.3 0.00 0.00 0.00 86 1010.8
20260507083014 25 5 0.0 6.4 0.00 0.00 0.00 86 1010.8
20260507081503 25 51 1.6 9.7 0.00 0.00 0.00 85 1010.7
20260507080100 25 83 1.6 9.7 0.00 0.00 0.00 85 1010.8
20260507074606 25 69 3.2 11.3 0.00 0.00 0.00 85 1010.7
20260507073135 25 87 1.6 8.0 0.00 0.00 0.00 85 1010.6
20260507071557 25 84 1.6 11.3 0.00 0.00 0.00 85 1010.7
20260507070057 25 38 1.6 11.3 0.00 0.00 0.00 85 1010.8
20260507064610 25 65 4.8 14.5 0.00 0.00 0.00 84 1011.0
20260507063106 25 48 4.8 12.9 0.00 0.00 0.00 84 1011.1
20260507061543 25 110 1.6 9.7 0.00 0.00 0.00 84 1011.2
20260507060042 25 23 3.2 9.7 0.00 0.00 0.00 83 1011.4
20260507054541 25 40 3.2 8.0 0.00 0.00 0.00 83 1011.5
20260507053041 25 109 4.8 11.3 0.00 0.00 0.00 83 1011.6
20260507051540 25 32 4.8 11.3 0.00 0.00 0.00 83 1011.7
20260507050038 25 119 3.2 9.7 0.00 0.00 0.00 83 1011.8
20260507044537 25 58 3.2 14.5 0.00 0.00 0.00 83 1012.0
20260507043038 25 38 4.8 9.7 0.00 0.00 0.00 82 1012.1
20260507041523 25 79 4.8 16.1 0.00 0.00 0.00 82 1012.2
20260507040022 26 34 3.2 9.7 0.00 0.00 0.00 82 1012.2
20260507034532 26 49 4.8 12.9 0.00 0.00 0.00 81 1012.2
20260507033020 26 139 4.8 14.5 0.00 0.00 0.00 81 1012.2
20260507031519 26 67 3.2 11.3 0.00 0.00 0.00 80 1012.2
20260507030017 26 64 4.8 12.9 0.00 0.00 0.00 80 1012.2
20260507024516 26 96 4.8 17.7 0.00 0.00 0.00 79 1012.2
20260507023015 26 161 4.8 12.9 0.00 0.00 0.00 79 1012.2
20260507021604 26 123 4.8 16.1 0.00 0.00 0.00 78 1012.0
20260507020054 26 52 4.8 14.5 0.00 0.00 0.00 77 1012.0
20260507014541 27 67 6.4 14.5 0.00 0.00 0.00 76 1012.0
20260507013040 27 98 6.4 14.5 0.00 0.00 0.00 74 1011.7
20260507011539 27 57 3.2 16.1 0.00 0.00 0.00 73 1011.4
20260507010039 27 65 6.4 14.5 0.00 0.00 0.00 72 1011.3
20260507004533 27 59 4.8 14.5 0.00 0.00 0.00 74 1011.1
20260507003032 27 142 3.2 12.9 0.00 0.00 0.00 76 1010.9
20260507001533 28 56 3.2 14.5 0.00 0.00 0.00 75 1010.7
20260507000029 28 94 6.4 19.3 0.00 0.00 0.00 73 1010.5
20260506234525 28 115 4.8 17.7 0.00 0.00 0.00 72 1010.1
20260506233009 28 54 8.0 17.7 0.00 0.00 0.00 70 1010.0
20260506231506 28 360 3.2 14.5 0.00 0.00 0.00 69 1009.6
20260506230004 29 61 4.8 11.3 0.00 0.00 0.00 68 1009.4
20260506224505 29 19 6.4 17.7 0.00 0.00 0.00 67 1009.3
20260506223105 30 84 6.4 17.7 0.00 0.00 0.00 65 1009.3
20260506221558 30 32 3.2 17.7 0.00 0.00 0.00 65 1009.1
20260506220108 30 56 8.0 17.7 0.00 0.00 0.00 65 1008.8
20260506214556 30 98 8.0 24.1 0.00 0.00 0.00 65 1008.7
20260506213038 31 57 6.4 22.5 0.00 0.00 0.00 64 1008.7
20260506211545 31 71 8.0 20.9 0.00 0.00 0.00 64 1008.4
20260506210025 31 26 8.0 25.7 0.00 0.00 0.00 65 1008.4
20260506204525 31 78 11.3 32.2 0.00 0.00 0.00 64 1008.4
20260506203025 31 108 11.3 24.1 0.00 0.00 0.00 61 1008.4
20260506201521 32 19 11.3 25.7 0.00 0.00 0.00 61 1008.3
20260506200017 -17 0.0 0.0 0.00 0.00 0.00 1008.3
20260506194615 -17 0.0 0.0 0.00 0.00 0.00 1008.4
20260506193008 -17 0.0 0.0 0.00 0.00 0.00 1008.3
20260506191504 -17 0.0 0.0 0.00 0.00 0.00 1008.5
20260506190043 -17 0.0 0.0 0.00 0.00 0.00 1008.6
20260506184539 -17 0.0 0.0 0.00 0.00 0.00 1008.7
20260506183021 -17 0.0 0.0 0.00 0.00 0.00 1008.9
20260506181517 -17 0.0 0.0 0.00 0.00 0.00 1009.2
20260506180012 -17 0.0 0.0 0.00 0.00 0.00 1009.3
20260506174508 -17 0.0 0.0 0.00 0.00 0.00 1009.7
20260506173004 -17 0.0 0.0 0.00 0.00 0.00 1009.9
20260506171606 -17 0.0 0.0 0.00 0.00 0.00 1010.1
20260506170104 -17 0.0 0.0 0.00 0.00 0.00 1010.4
20260506164552 -17 0.0 0.0 0.00 0.00 0.00 1010.8
20260506163035 -17 0.0 0.0 0.00 0.00 0.00 1011.1
20260506161532 -17 0.0 0.0 0.00 0.00 0.00 1011.5
20260506160036 -17 0.0 0.0 0.00 0.00 0.00 1011.7
20260506154524 -17 0.0 0.0 0.00 0.08 0.00 1011.9
20260506153117 -17 0.0 0.0 0.00 0.08 0.00 1012.1
20260506151515 -17 0.0 0.0 0.00 0.08 0.00 1012.3
20260506150008 -17 0.0 0.0 0.00 0.08 0.00 1012.6
20260506144503 -17 0.0 0.0 0.00 0.08 0.00 1012.8